FENGYUN 1C DEB, 31755

Orbit data source: Space-Track

FENGYUN 1C DEB, 31755 is space debris in SSO originally from a launch on Mon, 10 May 1999 UTC launched from the Taiyaun Space Center, China (TSC). Fengyun 1C debris stems from the Chinese weather satellite Fengyun-1C, which was intentionally destroyed by a Chinese anti-satellite missile in 2007. This event dramatically increased the amount of space debris, with thousands of trackable fragments posing hazards to satellites and human spaceflight. The Fengyun 1C debris cloud has become a focal point in discussions about space sustainability and the need for international regulations to prevent the creation of new debris.

Loading next visibility...
Identifier
31755, 1999-025CFE
Orbit
SSO
Country
Flag of CNCN / PRC
Related business
Manufacturer
Unknown
Mission
Spacecraft
Bus & Motor
Unknown
Mass
Unknown
Launch date (UTC)
1999-05-10 (27 years ago)
Launch vehicle
Unknown
Launch site
Taiyaun Space Center, China (TSC)
Object type
Payload
Rocket body
Debris
Shape & HBR
Unknown shape, 0.1 m
Radar Cross Section
Small (<0.1 m²)

Expand to show TLE details & history
Last TLE update: 1 week ago

TLE from 1 week ago
0 FENGYUN 1C DEB
1 31755U 99025CFE 26115.24161596  .00000612  00000-0  32403-3 0  9999
2 31755  98.7946 108.8605 0188803   5.7144  11.9490 14.08506208655513
Epoch: 2026-04-25T05:47Z
TLE epoch observation values (Epoch: 2026-04-25T05:47:55.618Z)
Latitude
17.89429°
Longitude
165.76805°
Altitude
733.128 km
Speed
7.559 km/s
True Right ascension
07h 04m 03s
True Declination
17° 47' 37"
Sunlit
Object was in daylight at epoch
Visualization orbit readout
Latitude
Unknown
Longitude
Unknown
Altitude
Unknown
Speed
Unknown
Apparent Right ascension
Unknown
Apparent Declination
Unknown
Sunlit
N/A
Visualization observer readout
Local Sidereal Time
13:21:42
Azimuth
Unknown
Elevation
Unknown
Doppler factor
Unknown
Orbital elements
Apogee altitude
998.354 km
Perigee altitude
724.975 km
Semi-major axis
7,239.802 km
Eccentricity
0.01888
Inclination
98.7946°
RAAN
108.8605°
Arg. of periapsis
5.7144°
True anomaly
12.40751°
Mean anomaly
11.949°
Eccentric anomaly
12.17718°
Mean motion
3.52333 °/min
Orbital period
102.18 mins
BSTAR
0.00032403
Loading maneuver chart data...
Computing Atmospheric mass density...

Documentation

Showing up to 5 results
|